FW6971 Weather Reports


time (UTC)temp
F
wind
direction
speed
knots
gust
knots
rain 1hr
in
rain 24hr
in
rain mn
in
humidity
%
barometer
mb
20260505091526 41 335 5.2 10.4 0.00 0.01 0.00 92 1010.9
20260505090032 40 229 7.0 10.4 0.00 0.01 0.00 93 1010.8
20260505084530 41 205 6.1 10.4 0.00 0.02 0.00 92 1010.5
20260505083026 41 215 7.0 10.4 0.00 0.02 0.00 92 1010.3
20260505081530 41 250 7.0 11.3 0.00 0.02 0.00 92 1010.0
20260505080030 41 229 7.0 12.2 0.00 0.02 0.00 92 1009.8
20260505074526 41 218 7.8 12.2 0.00 0.03 0.00 92 1009.5
20260505073030 41 235 7.0 10.4 0.00 0.03 0.00 92 1009.5
20260505071529 40 242 5.2 7.8 0.00 0.03 0.00 91 1009.4
20260505070027 41 227 3.5 9.6 0.00 0.03 0.00 91 1009.1
20260505064527 41 248 5.2 9.6 0.00 0.04 0.00 90 1008.8
20260505063025 42 269 7.0 13.0 0.00 0.04 0.00 90 1008.5
20260505061529 41 241 8.7 15.6 0.00 0.04 0.00 90 1008.1
20260505060026 41 196 10.4 17.4 0.00 0.04 0.00 90 1007.7
20260505054541 41 236 9.6 15.6 0.00 0.05 0.00 91 1007.6
20260505053027 41 239 8.7 13.9 0.00 0.05 0.00 91 1007.4
20260505051528 40 225 7.8 13.0 0.00 0.05 0.00 92 1007.3
20260505041531 40 222 7.8 16.5 0.00 0.05 0.00 91 1006.4
20260505040040 40 246 11.3 15.6 0.00 0.05 0.00 91 1006.2
20260505034536 41 207 9.6 15.6 0.00 0.05 0.00 90 1006.2
20260505033026 41 229 10.4 15.6 0.00 0.05 0.00 89 1006.1
20260505031527 41 231 8.7 14.8 0.00 0.05 0.00 89 1005.9
20260505030028 42 238 8.7 15.6 0.00 0.05 0.00 88 1005.6
20260505024528 42 243 8.7 16.5 0.00 0.05 0.05 87 1005.4
20260505023028 43 217 9.6 18.2 0.00 0.05 0.05 86 1005.4
20260505021529 43 253 8.7 15.6 0.00 0.05 0.05 85 1005.0
20260505020037 43 208 7.8 14.8 0.00 0.05 0.05 85 1005.0
20260505014530 44 201 7.0 13.0 0.00 0.05 0.05 84 1005.0
20260505013030 43 225 7.0 12.2 0.00 0.05 0.05 84 1005.0
20260505011530 43 218 5.2 12.2 0.00 0.05 0.05 83 1004.8
20260505010027 44 216 7.0 13.9 0.00 0.05 0.05 82 1004.6
20260505004528 44 201 8.7 13.0 0.00 0.07 0.05 81 1004.9
20260505003027 45 242 8.7 13.9 0.00 0.07 0.05 80 1004.7
20260505001528 45 206 8.7 13.0 0.00 0.07 0.05 80 1004.5
20260505000042 44 235 8.7 15.6 0.00 0.07 0.05 80 1004.2
20260504234528 45 236 7.8 13.9 0.00 0.15 0.05 78 1003.7
20260504233026 45 213 7.8 18.2 0.00 0.15 0.05 76 1003.5
20260504231530 45 239 11.3 15.6 0.00 0.15 0.05 76 1003.4
20260504230058 46 222 10.4 15.6 0.00 0.15 0.05 75 1003.1
20260504224528 47 219 8.7 14.8 0.00 0.40 0.05 73 1002.8
20260504223028 48 209 7.0 15.6 0.00 0.40 0.05 71 1002.8
20260504221528 48 210 8.7 14.8 0.00 0.40 0.05 70 1002.7
20260504220042 48 220 8.7 14.8 0.00 0.40 0.05 71 1002.4
20260504214534 50 194 9.6 20.0 0.00 0.54 0.05 65 1002.3
20260504213031 55 275 10.4 25.2 0.00 0.54 0.05 54 1002.0
20260504211536 55 236 11.3 26.9 0.00 0.54 0.05 56 1001.9
20260504210026 56 254 14.8 24.3 0.00 0.54 0.05 54 1001.7
20260504204536 55 272 13.0 26.1 0.00 0.66 0.05 59 1001.4
20260504203028 54 260 12.2 25.2 0.00 0.66 0.05 59 1001.2
20260504201528 54 244 16.5 28.7 0.00 0.66 0.05 57 1001.0
20260504200030 54 267 16.5 29.5 0.00 0.66 0.05 60 1000.7
20260504194528 54 271 19.1 27.8 0.00 0.67 0.05 59 1000.5
20260504193030 53 273 15.6 28.7 0.00 0.67 0.05 61 1000.3
20260504191529 54 241 20.9 34.8 0.00 0.67 0.05 61 999.9
20260504190030 53 251 20.0 34.8 0.00 0.67 0.05 65 999.8
20260504184527 52 288 18.2 29.5 0.00 0.68 0.05 69 999.5
20260504183030 52 254 18.2 33.9 0.00 0.68 0.05 72 999.4
20260504181531 51 228 18.2 33.9 0.00 0.68 0.05 73 999.3
20260504180028 51 254 16.5 31.3 0.00 0.68 0.05 74 999.0
20260504174530 50 263 17.4 30.4 0.00 0.68 0.05 76 998.8
20260504173030 49 237 20.9 39.1 0.00 0.68 0.05 77 998.6
20260504171528 49 252 19.1 32.2 0.00 0.68 0.05 79 998.4